#timestamp,LO_Frequency,Hit,StdDev 
1649728815.2,286047001.2,N
1649728835.1,286046999.1,N
1649728836.0,286046999.1,N
1649728855.8,286046999.6,N
1649728875.6,286047000.8,N
1649728895.5,286047000.4,N
1649728915.3,286047000.1,N
1649728935.2,286046998.5,N
1649728955.9,286046999.3,N
1649728975.7,286047000.0,N
1649728995.6,286046999.1,N
1649729015.4,286046999.4,N
1649729035.2,286046997.8,N
1649729055.1,286046997.9,N
1649729056.0,286046997.9,N
1649729075.8,286046996.8,N
1649729095.7,286046998.2,N
1649729115.5,286046998.9,N
1649729135.3,286046997.4,N
1649729155.2,286046997.1,N
1649729175.0,286046998.4,N
1649729175.9,286046998.4,N
1649729195.7,286046997.5,N
1649729215.6,286046996.8,N
1649729235.4,286046997.7,N
1649729255.3,286046997.6,N
1649729275.1,286046996.9,N
1649729276.0,286046996.9,N
1649729295.8,286046999.3,N
1649729315.7,286046998.4,N
1649729335.5,286046999.0,N
1649729355.3,286046997.5,N
1649729375.2,286046996.8,N
1649729395.0,286046999.6,N
1649729395.9,286046999.6,N
1649729415.8,286046999.3,N
1649729435.6,286047000.5,N
1649729455.5,286046998.2,N
1649729475.3,286047001.0,N
1649729495.1,286046999.3,N
1649729515.9,286046998.4,N
1649729535.7,286046999.1,N
1649729555.5,286046998.8,N
1649729575.4,286046998.3,N
1649729595.2,286046997.1,N
1649729615.1,286046996.6,Y
1649729616.0,286046996.6,P
1649729635.8,286046998.5,N
1649729655.6,286046998.4,N
1649729675.5,286047000.0,N
1649729695.3,286046998.9,N
1649729715.1,286046999.1,N
1649729735.9,286047000.6,N
1649729755.7,286047000.7,N
1649729775.6,286047000.5,N
1649729795.4,286047000.8,N
1649729815.2,286047001.0,N
1649729835.1,286047002.5,N
1649729836.0,286047002.5,N
1649729855.8,286047002.7,N
1649729875.6,286046999.8,N
1649729895.5,286046999.9,N
1649729915.3,286046999.0,N
1649729935.2,286047000.7,N
1649729955.9,286046998.8,N
1649729975.7,286046996.8,N
1649729995.6,286046997.5,N
1649730015.4,286046999.5,N
1649730035.2,286046998.2,N
1649730055.1,286047002.2,N
1649730056.0,286047002.2,N
1649730075.8,286047004.2,N
1649730095.7,286047002.0,N
1649730115.5,286047002.4,N
1649730135.3,286047002.7,N
1649730155.2,286047002.4,N
1649730175.0,286047001.6,N
1649730175.9,286047001.6,N
1649730195.8,286047002.7,N
1649730215.6,286047000.3,N
1649730235.4,286047000.4,N
1649730255.3,286047001.5,N
1649730275.1,286047006.0,Y
1649730295.8,286047001.7,P
1649730315.7,286047002.7,P
1649730335.5,286046999.8,N
1649730355.4,286046999.7,N
1649730375.2,286046998.4,N
1649730395.0,286046996.6,N
1649730395.9,286046996.6,N
1649730415.8,286046998.5,N
1649730435.6,286047001.2,N
1649730455.4,286046996.6,N
1649730475.3,286046996.7,N
1649730495.1,286046997.0,N
1649730515.9,286046996.9,N
1649730535.7,286046998.6,N
1649730555.5,286047001.1,N
1649730575.4,286047002.6,N
1649730595.2,286047002.8,N
1649730615.0,286047001.1,N
1649730616.0,286047001.1,N
1649730635.8,286046999.7,N
1649730655.6,286047002.3,N
1649730675.5,286046998.5,N
1649730695.3,286046998.5,N
1649730715.1,286046999.6,N
1649730735.9,286046997.4,N
1649730755.7,286046997.4,N
1649730775.6,286046999.3,N
1649730795.4,286046997.3,N
1649730815.2,286046994.9,N
1649730835.1,286046997.5,N
1649730836.0,286046997.5,N
1649730855.8,286046996.9,N
1649730875.6,286046996.5,N
1649730895.5,286046996.5,N
1649730915.3,286047000.8,N
1649730935.2,286047002.8,N
1649730955.9,286046999.7,N
1649730975.7,286047000.0,N
1649730995.6,286047004.4,N
1649731015.4,286047001.9,N
1649731035.2,286047003.2,N
1649731055.1,286047001.9,N
1649731056.0,286047001.9,N
1649731075.8,286047001.4,N
1649731095.7,286047002.7,N
1649731115.5,286047000.4,N
1649731135.3,286046999.1,N
1649731155.2,286046996.6,N
1649731175.0,286046999.5,N
1649731175.9,286046999.5,N
1649731195.8,286046999.6,N
1649731215.6,286046998.2,N
1649731235.4,286047000.9,N
1649731255.3,286046999.1,N
1649731275.1,286046999.4,N
1649731295.9,286046998.2,N
1649731315.7,286046998.5,N
1649731335.5,286046999.8,N
1649731355.4,286047000.0,N
1649731375.2,286046999.0,N
1649731395.0,286046997.8,N
1649731395.9,286046997.8,N
1649731415.8,286046995.9,N
1649731435.6,286046995.2,N
1649731455.5,286046997.7,N
1649731475.3,286046996.6,N
1649731495.1,286046999.9,N
1649731515.9,286047000.8,N
1649731535.7,286046998.6,N
1649731555.5,286047000.1,N
1649731575.4,286047000.2,N
1649731595.2,286046998.9,N
1649731615.1,286047000.2,N
1649731616.0,286047000.2,N
1649731635.8,286046999.0,N
1649731655.6,286047000.4,N
1649731675.5,286046999.7,N
1649731695.3,286047000.8,N
1649731715.1,286047001.4,N
1649731735.9,286047002.2,N
1649731755.7,286047001.5,N
1649731775.6,286047004.1,N
1649731795.4,286047004.1,N
1649731815.2,286047011.9,Y
1649731835.1,286047001.9,P
1649731836.0,286047001.9,N
1649731855.8,286047002.4,N
1649731875.6,286047000.5,N
1649731895.5,286047001.1,N
1649731915.3,286047000.9,N
1649731935.2,286047002.2,N
1649731955.9,286047000.4,N
1649731975.7,286047002.8,Y
1649731995.6,286047001.0,P
1649732015.4,286047002.7,P
1649732035.2,286047001.1,N
1649732055.1,286046999.4,N
1649732056.0,286046999.4,N
1649732075.8,286046998.7,N
1649732095.7,286046998.3,N
1649732115.5,286046998.5,N
1649732135.3,286046998.3,N
1649732155.2,286046998.1,N
1649732175.0,286046999.3,N
1649732175.9,286046999.3,N
1649732195.8,286046998.8,N
1649732215.6,286047000.0,N
1649732235.4,286047001.0,N
1649732255.3,286046998.2,N
1649732275.1,286046996.7,N
1649732295.9,286046996.5,N
1649732315.7,286046997.1,N
1649732335.5,286046999.3,N
1649732355.4,286046995.1,Y
1649732375.2,286046997.6,P
1649732395.1,286046996.9,P
1649732396.0,286046996.9,P
